Huvudsida
METAR-TAF:

METAR-TAF

Flygplatser :

Mahshahr Airport

Bandar-e Mahshahr, Iran

latitud: 30-33-23N, longitud: 049-09-07E, höjd: 2 m

Aktuellt väderrapport

Denna rapport gjordes för 28 minuter sedan, klockan 06:00 UTC
Stilla vind
Temperatur 19°C
Fuktighet 68%
Tryck 1018 hPa
Sikt: 5000 m
torrdis

METAR: OIAM 220600Z 00000KT 5000 HZ NSC 19/13 Q1018

Tid: 09:58 (06:28 UTC)


TAF: saknas

Aktuella väderrapporter och prognoser från 4000 flygplatser (METAR- och TAF-rapporter).

De tillgängliga stationerna syns som gula och röda prickar på kartan.

För musen över prickarna för att se namnen på stationerna.

Klicka sedan för att få väderrapporter och prognoser.

För att ändra kartan: Klicka på de gröna knapparna med ett svart kors på för att zooma in; den gröna knappen med ett streck på för att zooma ut; eller på de gröna pilarna för angränsande kartor.


METAR-TAF: